Other Surface Observations
Issued by NWS

Home | Current Version | Previous Version | Text Only | Print | Product List | Glossary On
Versions: 1 2 3 4 5 6 7 8 9 10 11 12 13 14 15 16 17 18 19 20 21 22 23 24 25 26 27 28 29 30 31 32 33 34 35 36 37 38 39 40 41 42 43 44 45 46 47 48 49 50
000
SXUS52 KTAE 171706
OSOTAE
OSOTAE
North Florida/South Alabama/Southwest Georgia Weather Roundup
National Weather Service Tallahassee Florida
100 PM EDT TUE OCT 17 2017

Note: "fair" indicates few or no clouds below 12,000 feet with no
significant weather and/or obstructions to visibility.

!FLZ017-115-028-034-025-171800
...North Florida...

CITY           SKY/WX    TMP DP  RH WIND       PRES   REMARKS
TALLAHASSEE    MOSUNNY   72  57  59 NE13      30.19F
APALACHICOLA   CLOUDY    73  60  63 E13       30.15S
PERRY          NOT AVBL
CROSS CITY     MOSUNNY   76  62  62 NE14G22   30.17F
JACKSONVILLE   CLOUDY    72  63  73 NE18G28   30.15F
$$

!FLZ112-006-005-002-011-171800
...Florida Panhandle...

CITY           SKY/WX    TMP DP  RH WIND       PRES   REMARKS
MARIANNA       SUNNY     73  47  39 NE16G23   30.20F
BONIFAY        NOT AVBL
PANAMA CITY NW FAIR      73  54  51 NE14G21   30.17S
TYNDALL AFB    SUNNY     73  57  55 E12       30.16F
TYND DRONE APT FAIR      74  58  58 NE13      30.16F
DE FUNIAK SPR  FAIR      70  49  48 NE12      30.21S
EGLIN AFB      MOSUNNY   73  52  47 NE10G21   30.17F
DESTIN         CLOUDY    74  53  48 E10       30.18S
HURLBURT       PTSUNNY   72  55  53 E12       30.16S
CRESTVIEW      SUNNY     73  51  46 NE9G17    30.21S
PENSACOLA      MOSUNNY   73  54  51 NE9       30.18F
$$

!ALZ063-066-171800
...South Alabama...

CITY           SKY/WX    TMP DP  RH WIND       PRES   REMARKS
DOTHAN         SUNNY     71  46  40 NE14G21   30.25F
OZARK CAIRNS   SUNNY     71  47  43 NE13      30.22F
FT RUCKER HELI SUNNY     69  48  47 E8        30.23F
RUCKER HELI 3  FAIR      69  48  47 E10       30.22F
RUCKER HELI 2  FAIR      69  46  44 E12       30.22F
FLORALA APT    SUNNY     70  49  47 NE14      30.23F
ANDALUSIA      SUNNY     72  48  42 E13G21    30.22F
TROY           SUNNY     67  47  48 E10G18    30.26F
EUFALA         FAIR      71  45  39 E12       30.25F
MOBILE         SUNNY     71  54  54 NE9       30.20F
$$

!GAZ120>161-171800
...Southwest and South Central Georgia...

CITY           SKY/WX    TMP DP  RH WIND       PRES   REMARKS
THOMASVILLE    CLOUDY    68  50  52 NE13      30.23F
BAINBRIDGE     SUNNY     73  52  46 E17G25    30.22F
MOODY AFB      PTSUNNY   69  52  53 NE17      30.21F
VALDOSTA       CLOUDY    68  54  60 NE10      30.21F
MOULTRIE       SUNNY     70  46  43 N12G17    30.23F
BLAKELY        SUNNY     72  43  35 NE10G17   30.24F
ALBANY         SUNNY     71  42  35 NE17      30.26F
TIFTON         FAIR      67  43  41 NE9G20    30.23F
FITZGERALD     FAIR      69  44  41 E8G18     30.28F
CORDELE        FAIR      72  36  27 E15       30.29F
AMERICUS       FAIR      68  36  30 E12G18    30.29F
HOMERVILLE     FAIR      68  52  56 E8        30.23F
$$

!GMZ750-755-770-775-171800
...Coastal and Buoy Obs...

STATION/POSITION TIME  TEMP    WIND        PRES    VSBY  WAVE
                       AIR SEA DIR/SP/G                  HT/PER
                 (UTC) (F)     (DEG/KT/KT) (MB)    (MI)  (FT/S)
KEATON BEACH     1700   70      30/ 13/ 17 1020.0F
CEDAR KEY        1600   72      50/ 15/ 18 1019.7F
C TOWER          1700   69      60/ 22/ 24 1020.7F
APALACHICOLA BUO 1650   75 81   60/ 17/ 21 1018.3F         6/ 6
PANAMA CITY BUOY 1550   77 82   70/ 19/ 23 1018.4          6/ 7
MOBILE BUOY      1650   76 82   50/ 17/ 21 1020.3F         6/ 6
ORANGE BCH AL BU 1550   69 79   70/ 17/ 23 1021.2          5/ 6
$$




USA.gov is the U.S. government's official web portal to all federal, state and local government web resources and services.